Погода в Порт-Судане

Судан     19°35′14″N   37°12′08″E
темп.,
°C
ветер,
м/с
пор.,
м/с
влажн.,
%
обл.,
%
осадки,
мм/ч
давл.,
гПа
погр.,
м
14 мая, пт
пт1423:00+28с23650 0.0 100874
02:00+28ссз56570 0.0 1006146
05:00+27ссз46470 0.0 1008100
08:00+32ссв45320 0.0 1010429
11:00+33св67350 0.0 1009678
14:00+32св77420 0.0 1007643
17:00+31ссв67480 0.0 1007620
20:00+28с47640 0.0 1008278
15 мая, сб
сб1523:00+28сз34530 0.0 1008137
02:00+28сз33400 0.0 100749
05:00+27ссз34370 0.0 100772
08:00+32ссв34260 0.0 1008362
11:00+32св65360 0.0 1008650
14:00+32всв66410 0.0 1005497
17:00+30ссв45485 0.0 1006475
20:00+28ссз45590 0.0 1007154
16 мая, вс
вс1623:00+28сз11540 0.0 100640
02:00+27зсз22490 0.0 100519
05:00+27ююз01450 0.0 100611
08:00+31ссв33340 0.0 1008328
11:00+32всв53360 0.0 1007560
14:00+32в65410 0.0 1005432
17:00+31ссв44470 0.0 1005367
20:00+29с45580 0.0 1007131
17 мая, пн
пн1723:00+28юз11510 0.0 100725
02:00+27ссз11480 0.0 100611
05:00+27зсз11410 0.0 100611
08:00+33ссв11240 0.0 1008278
11:00+33всв54300 0.0 1008473
14:00+33св76390 0.0 1006466
17:00+32ссв33430 0.0 1006313
20:00+29с11515 0.0 100711
18 мая, вт
вт1823:00+29зюз22410 0.0 100711
02:00+30зюз34290 0.0 100517
05:00+29ссз33270 0.0 100612
08:00+33с45250 0.0 1008332
11:00+34св66305 0.0 1008588
14:00+34св65325 0.0 1006600
17:00+32ссв453914 0.0 1005260
20:00+29с4552100 0.0 100785